Cocoa Beach, FL

2:53 PM EDT on September 21, 2017 (GMT -0400)
Patrick Air Force Base

Weather History for KCOF - January, 2014

Change the Weather History Date:

Wednesday, January 8, 2014

  Actual Average Record
Temperature  
Mean Temperature 57 °F -  
Max Temperature 68 °F 68 °F 84 °F (1997)
Min Temperature 46 °F 54 °F 39 °F (2002)
Degree Days  
Heating Degree Days 8    
Growing Degree Days 7 (Base 50)    
Moisture  
Dew Point 56 °F    
Average Humidity 79    
Maximum Humidity 100    
Minimum Humidity 60    
Precipitation  
Precipitation 0.07 in - - ()
Sea Level Pressure  
Sea Level Pressure 30.33 in    
Wind  
Wind Speed 15 mph (NE)    
Max Wind Speed 18 mph    
Max Gust Speed 24 mph    
Visibility 10 miles    
Events      
Averages and records for this station are not official NWS values.
T = Trace of Precipitation, MM = Missing Value Source: NWS Daily Summary

Daily Weather History Graph

Daily Weather History Graph

Search for Another Location

Airport or City:

Trip Planner

Search our weather history database for the weather conditions in past years. The results will help you decide how hot, cold, wet, or windy it might be!

Date:

Astronomy

Jan. 08, 2014 Rise Set
Actual Time 7:15 AM EST 5:42 PM EST
Civil Twilight 6:50 AM EST 6:08 PM EST
Nautical Twilight 6:20 AM EST 6:37 PM EST
Astronomical Twilight 5:52 AM EST 7:06 PM EST
Moon 12:19 PM EST (1/8) 12:37 AM EST (1/8)
Length of Visible Light 11h 18m
Length of Day
10h 27m
First Quarter, 56% of the Moon is Illuminated
Jan 8
First Quarter
Jan 15
Full
Jan 24
Last Quarter
Jan 30
New
Feb 6
First Quarter

Hourly Weather History & Observations

Time (EST) Temp. Dew Point Humidity Pressure Visibility Wind Dir Wind Speed Gust Speed Precip Events Conditions
12:58 AM 46.9 °F 45.3 °F 94% 30.35 in 10.0 mi NW 15.0 mph - N/A   Clear
1:58 AM 48.0 °F 46.8 °F 95% 30.37 in 10.0 mi NW 13.8 mph - N/A   Clear
2:58 AM 50.7 °F 49.1 °F 94% 30.34 in 10.0 mi NNW 17.3 mph 23.0 mph N/A   Clear
3:58 AM 51.4 °F 50.0 °F 95% 30.34 in 10.0 mi North 18.4 mph 24.2 mph N/A   Overcast
4:58 AM 52.7 °F 50.7 °F 93% 30.32 in 10.0 mi NNW 13.8 mph - N/A   Overcast
5:58 AM 55.8 °F 49.5 °F 79% 30.32 in 10.0 mi NE 17.3 mph 20.7 mph N/A   Overcast
6:58 AM 61.0 °F 49.6 °F 66% 30.34 in 10.0 mi NNE 17.3 mph - N/A   Overcast
7:58 AM 62.1 °F 49.6 °F 64% 30.35 in 10.0 mi NE 17.3 mph - N/A   Overcast
8:58 AM 63.1 °F 50.4 °F 63% 30.39 in 10.0 mi NE 16.1 mph - N/A   Overcast
9:58 AM 64.8 °F 51.4 °F 62% 30.40 in 10.0 mi NE 17.3 mph - N/A   Mostly Cloudy
10:58 AM 66.2 °F 53.6 °F 64% 30.39 in 10.0 mi NE 17.3 mph - 0.07 in   Mostly Cloudy
11:58 AM 67.8 °F 53.8 °F 61% 30.35 in 10.0 mi NE 17.3 mph - N/A   Mostly Cloudy
12:58 PM 68.4 °F 53.8 °F 60% 30.32 in 10.0 mi ENE 16.1 mph - N/A   Mostly Cloudy
1:58 PM 68.0 °F 55.0 °F 63% 30.31 in 10.0 mi ENE 15.0 mph - N/A   Mostly Cloudy
2:58 PM 67.8 °F 55.8 °F 65% 30.31 in 10.0 mi NE 15.0 mph - N/A   Overcast
3:58 PM 66.9 °F 56.8 °F 70% 30.31 in 10.0 mi NE 11.5 mph - N/A   Overcast
4:58 PM 66.0 °F 57.6 °F 74% 30.31 in 10.0 mi NNE 13.8 mph - N/A   Overcast
5:58 PM 66.2 °F 58.3 °F 76% 30.31 in 10.0 mi ENE 12.7 mph - N/A   Overcast
6:58 PM 66.4 °F 59.0 °F 77% 30.31 in 10.0 mi ENE 10.4 mph - N/A   Overcast
7:58 PM 67.3 °F 59.0 °F 75% 30.31 in 10.0 mi ENE 13.8 mph - N/A   Overcast
8:58 PM 67.5 °F 59.5 °F 76% 30.32 in 10.0 mi East 12.7 mph - N/A   Overcast
9:58 PM 67.6 °F 59.2 °F 74% 30.32 in 10.0 mi ENE 11.5 mph - N/A   Mostly Cloudy
10:43 PM 68.0 °F 60.8 °F 78% 30.31 in 10.0 mi East 15.0 mph - N/A   Overcast
10:48 PM 68.0 °F 60.8 °F 78% 30.31 in 10.0 mi East 12.7 mph - N/A   Overcast
10:53 PM 68.0 °F 62.6 °F 83% 30.31 in 10.0 mi ENE 16.1 mph - N/A   Overcast
10:58 PM 67.1 °F 62.8 °F 86% 30.32 in 9.0 mi ENE 12.7 mph - N/A   Overcast
11:08 PM 66.2 °F 62.6 °F 88% 30.30 in 10.0 mi ENE 13.8 mph - N/A   Overcast
11:18 PM 66.2 °F 62.6 °F 88% 30.30 in 10.0 mi ENE 15.0 mph - N/A   Mostly Cloudy
11:38 PM 66.2 °F 62.6 °F 88% 30.30 in 9.0 mi East 15.0 mph - N/A   Mostly Cloudy
11:46 PM 66.2 °F 62.6 °F 88% 30.29 in 6.0 mi East 15.0 mph - N/A   Light Drizzle
11:56 PM 64.4 °F 64.4 °F 100% 30.29 in 6.0 mi ENE 15.0 mph - N/A   Overcast
11:58 PM 64.9 °F 63.7 °F 96% 30.31 in 6.0 mi East 16.1 mph - 0.00 in   Overcast